Location: Unspecified
(0.0000°N, 0.0000°E)
Time: 05:05:52
(UTC+00:00)

SRMSAT - Visible Passes

Search period start: 27 February 2024 00:00
Search period end: 08 March 2024 00:00
Orbit: 847 x 864 km, 20.0° (Epoch: 26 February)

Date Brightness Start Highest point End Pass type
(mag) Time Alt. Az. Time Alt. Az. Time Alt. Az.
27 Feb ? 04:14:21 12° N 04:14:23 12° N 04:16:36 10° NNE visible
27 Feb ? 18:46:55 10° SW 18:52:22 37° SSE 18:57:09 13° E visible
27 Feb ? 20:35:39 10° WSW 20:39:08 37° WSW 20:39:08 37° WSW visible
28 Feb ? 04:01:51 13° NNE 04:01:51 13° NNE 04:03:42 10° NE visible
28 Feb ? 05:46:03 10° NW 05:50:57 26° NNE 05:55:52 10° ENE visible
28 Feb ? 18:33:25 10° SW 18:38:59 42° SSE 18:44:34 10° E visible
28 Feb ? 20:22:17 10° WSW 20:26:44 50° W 20:26:44 50° W visible
29 Feb ? 03:49:23 13° NNE 03:49:23 13° NNE 03:50:47 10° NE visible
29 Feb ? 05:32:29 10° NW 05:37:35 29° NNE 05:42:43 10° ENE visible
29 Feb ? 20:08:57 10° W 20:14:21 59° NW 20:14:21 59° NW visible
01 Mar ? 03:36:56 12° NE 03:36:56 12° NE 03:37:49 10° NE visible
01 Mar ? 05:18:56 10° NW 05:24:13 32° NNE 05:29:32 10° E visible
01 Mar ? 19:55:38 10° W 20:01:23 53° NNW 20:01:59 51° N visible
02 Mar ? 03:24:30 11° NE 03:24:30 11° NE 03:24:50 10° NE visible
02 Mar ? 05:06:28 15° NW 05:10:50 36° NNE 05:16:19 10° E visible
02 Mar ? 19:42:20 10° W 19:47:59 47° NNW 19:49:38 37° NNE visible
03 Mar ? 04:54:05 22° NW 04:57:27 41° NNE 05:03:04 10° E visible
03 Mar ? 19:29:05 10° W 19:34:36 41° NNW 19:37:18 26° NNE visible
04 Mar ? 04:41:42 31° NNW 04:44:03 46° NNE 04:49:48 10° E visible
04 Mar ? 19:15:50 10° W 19:21:14 36° NNW 19:24:57 18° NE visible
05 Mar ? 04:29:21 44° NNW 04:30:39 53° NNE 04:36:30 10° E visible
05 Mar ? 19:02:38 10° W 19:07:51 32° NNW 19:12:35 12° NE visible
05 Mar ? 20:54:19 10° NW 20:54:34 11° NW 20:54:34 11° NW visible
06 Mar ? 04:17:00 60° N 04:17:15 61° NNE 04:23:10 10° E visible
06 Mar ? 18:49:27 10° WNW 18:54:29 29° NNW 18:59:30 10° NE visible
06 Mar ? 20:41:23 10° NW 20:42:11 12° NNW 20:42:11 12° NNW visible
07 Mar ? 04:04:39 61° ENE 04:04:39 61° ENE 04:09:49 10° ESE visible
07 Mar ? 05:47:23 10° W 05:53:03 43° SSW 05:58:44 10° SE visible
07 Mar ? 18:36:17 10° WNW 18:41:07 26° NNW 18:45:55 10° NE visible
07 Mar ? 20:28:29 10° NW 20:29:48 12° NNW 20:29:48 12° NNW visible
